Retour au catalogue

FENGYUN 1C DEB

ActifSSO
NORAD 29963·DEBRIS·🇨🇳 China

Lancé May 10, 1999 depuis Taiyuan Satellite Launch Center

Loading…

Prochains Passages (prochaines 24 heures)

TLE

FraisSource: Space-Track

Époque: Sep 14, 2026, 10:35 UTC

1 29963U 99025KM  26257.44108728  .00000688  00000-0  28004-3 0  9999
2 29963  98.9704 155.1951 0049822 220.2334 194.4247 14.30185554 20803

Suivez FENGYUN 1C DEB en temps réel avec AllMySat

Download on the App Store